When you browse on this site, cookies collect data to enhance your experience and personalize the content and advertising you see.
Visit our Privacy Policy to learn more. By continuing to use the site, you agree to this use of cookies and data.
  • In Sweden
  • List of Countries
  • For 7 days
  • Water Temperature
  • Satellite Maps
  • Weather Map
  • Weather Widgets
  • user-avatar
    Login

    Hourly Weather Makkah

    Today, 21 July, Sunday

    Time Temperature Precipitation Wind Pressure Humidity
    00:00 +34°C° 0 mm 3 mps 745 mmHg 45%
    01:00 +34°C° 0 mm 3 mps 744 mmHg 44%
    02:00 +34°C° 0 mm 4 mps 744 mmHg 43%
    03:00 +34°C° 0 mm 4 mps 743 mmHg 42%
    04:00 +34°C° 0 mm 4 mps 743 mmHg 41%
    05:00 +34°C° 0 mm 4 mps 743 mmHg 40%
    06:00 +34°C° 0 mm 4 mps 743 mmHg 38%
    07:00 +37°C° 0 mm 5 mps 744 mmHg 31%
    08:00 +41°C° 0 mm 6 mps 744 mmHg 23%
    09:00 +45°C° 0 mm 7 mps 744 mmHg 15%
    10:00 +47°C° 0 mm 7 mps 744 mmHg 15%
    11:00 +49°C° 0 mm 7 mps 744 mmHg 15%
    12:00 +51°C° 0 mm 8 mps 744 mmHg 15%
    13:00 +50°C° 0 mm 9 mps 743 mmHg 18%
    14:00 +49°C° 0 mm 10 mps 743 mmHg 22%
    15:00 +48°C° 0 mm 12 mps 742 mmHg 25%
    16:00 +46°C° 0 mm 11 mps 742 mmHg 27%
    17:00 +44°C° 0 mm 11 mps 742 mmHg 29%
    18:00 +43°C° 0 mm 11 mps 742 mmHg 31%
    19:00 +40°C° 0 mm 9 mps 743 mmHg 34%
    20:00 +38°C° 0 mm 6 mps 743 mmHg 38%
    21:00 +36°C° 0 mm 4 mps 743 mmHg 41%
    22:00 +36°C° 0 mm 4 mps 743 mmHg 39%
    23:00 +36°C° 0 mm 5 mps 744 mmHg 37%

    Tomorrow, 22 July, Monday

    Time Temperature Precipitation Wind Pressure Humidity
    00:00 +36°C° 0 mm 5 mps 744 mmHg 35%
    01:00 +35°C° 0 mm 4 mps 743 mmHg 37%
    02:00 +34°C° 0 mm 4 mps 743 mmHg 39%
    03:00 +34°C° 0 mm 4 mps 743 mmHg 41%
    04:00 +33°C° 0 mm 4 mps 743 mmHg 42%
    05:00 +33°C° 0 mm 5 mps 743 mmHg 42%
    06:00 +33°C° 0 mm 6 mps 743 mmHg 43%
    07:00 +36°C° 0 mm 6 mps 744 mmHg 38%
    08:00 +39°C° 0 mm 6 mps 744 mmHg 33%
    09:00 +41°C° 0 mm 7 mps 745 mmHg 27%
    10:00 +44°C° 0 mm 7 mps 745 mmHg 26%
    11:00 +45°C° 0 mm 8 mps 744 mmHg 24%
    12:00 +47°C° 0 mm 9 mps 744 mmHg 23%
    13:00 +45°C° 0 mm 9 mps 744 mmHg 25%
    14:00 +44°C° 0 mm 10 mps 744 mmHg 27%
    15:00 +43°C° 0 mm 10 mps 743 mmHg 29%
    16:00 +43°C° 0 mm 9 mps 743 mmHg 28%
    17:00 +43°C° 0 mm 9 mps 743 mmHg 27%
    18:00 +41°C° 0 mm 8 mps 742 mmHg 26%
    19:00 +39°C° 0 mm 7 mps 743 mmHg 30%
    20:00 +38°C° 0 mm 6 mps 744 mmHg 34%
    21:00 +35°C° 0 mm 4 mps 744 mmHg 38%
    22:00 +35°C° 0 mm 4 mps 744 mmHg 37%
    23:00 +34°C° 0 mm 4 mps 744 mmHg 37%

    Day after tomorrow, 23 July, Tuesday

    Time Temperature Precipitation Wind Pressure Humidity
    00:00 +34°C° 0 mm 4 mps 743 mmHg 36%
    01:00 +34°C° 0 mm 4 mps 743 mmHg 36%
    02:00 +33°C° 0 mm 4 mps 743 mmHg 35%
    03:00 +33°C° 0 mm 3 mps 743 mmHg 35%
    04:00 +31°C° 0 mm 3 mps 743 mmHg 43%
    05:00 +32°C° 0 mm 4 mps 743 mmHg 51%
    06:00 +30°C° 0 mm 4 mps 744 mmHg 59%
    07:00 +33°C° 0 mm 4 mps 744 mmHg 52%
    08:00 +35°C° 0 mm 5 mps 745 mmHg 45%
    09:00 +39°C° 0 mm 5 mps 745 mmHg 38%
    10:00 +41°C° 0 mm 6 mps 745 mmHg 33%
    11:00 +43°C° 0 mm 7 mps 745 mmHg 28%
    12:00 +45°C° 0 mm 7 mps 744 mmHg 23%
    13:00 +45°C° 0 mm 8 mps 744 mmHg 23%
    14:00 +44°C° 0 mm 8 mps 744 mmHg 23%
    15:00 +44°C° 0 mm 8 mps 743 mmHg 23%
    16:00 +43°C° 0 mm 8 mps 743 mmHg 24%
    17:00 +41°C° 0 mm 7 mps 743 mmHg 24%
    18:00 +41°C° 0 mm 6 mps 743 mmHg 25%
    19:00 +39°C° 0 mm 5 mps 744 mmHg 28%
    20:00 +36°C° 0 mm 4 mps 744 mmHg 31%
    21:00 +35°C° 0 mm 3 mps 744 mmHg 34%
    22:00 +34°C° 0 mm 3 mps 744 mmHg 35%
    23:00 +34°C° 0 mm 2 mps 744 mmHg 35%

    24 July, Wednesday

    Time Temperature Precipitation Wind Pressure Humidity
    00:00 +32°C° 0 mm 2 mps 744 mmHg 36%
    01:00 +32°C° 0 mm 2 mps 743 mmHg 36%
    02:00 +33°C° 0 mm 3 mps 743 mmHg 35%
    03:00 +33°C° 0 mm 3 mps 743 mmHg 35%
    04:00 +31°C° 0 mm 3 mps 743 mmHg 38%
    05:00 +31°C° 0 mm 3 mps 743 mmHg 41%
    06:00 +30°C° 0 mm 3 mps 743 mmHg 44%
    07:00 +34°C° 0 mm 4 mps 744 mmHg 40%
    08:00 +36°C° 0 mm 4 mps 744 mmHg 35%
    09:00 +39°C° 0 mm 5 mps 744 mmHg 31%
    10:00 +41°C° 0 mm 6 mps 744 mmHg 27%
    11:00 +44°C° 0 mm 7 mps 744 mmHg 23%
    12:00 +47°C° 0 mm 9 mps 744 mmHg 19%
    13:00 +45°C° 0 mm 9 mps 743 mmHg 20%
    14:00 +45°C° 0 mm 9 mps 743 mmHg 20%
    15:00 +45°C° 0 mm 10 mps 742 mmHg 21%
    16:00 +44°C° 0 mm 9 mps 742 mmHg 22%
    17:00 +43°C° 0 mm 9 mps 742 mmHg 23%
    18:00 +41°C° 0 mm 8 mps 742 mmHg 24%
    19:00 +40°C° 0 mm 7 mps 742 mmHg 28%
    20:00 +38°C° 0 mm 6 mps 742 mmHg 33%
    21:00 +35°C° 0 mm 5 mps 743 mmHg 38%
    22:00 +34°C° 0 mm 4 mps 742 mmHg 40%
    23:00 +34°C° 0 mm 4 mps 742 mmHg 42%

    25 July, Thursday

    Time Temperature Precipitation Wind Pressure Humidity
    00:00 +33°C° 0 mm 4 mps 742 mmHg 45%
    01:00 +33°C° 0 mm 4 mps 742 mmHg 46%
    02:00 +33°C° 0 mm 4 mps 741 mmHg 47%
    03:00 +32°C° 0 mm 4 mps 741 mmHg 48%
    04:00 +32°C° 0 mm 4 mps 741 mmHg 52%
    05:00 +32°C° 0 mm 4 mps 741 mmHg 57%
    06:00 +30°C° 0 mm 4 mps 741 mmHg 61%
    07:00 +33°C° 0 mm 5 mps 742 mmHg 56%
    08:00 +36°C° 0 mm 5 mps 742 mmHg 50%
    09:00 +39°C° 0 mm 5 mps 743 mmHg 44%
    10:00 +40°C° 0 mm 5 mps 742 mmHg 42%
    11:00 +41°C° 0 mm 6 mps 742 mmHg 39%
    12:00 +44°C° 0 mm 6 mps 742 mmHg 37%
    13:00 +44°C° 0 mm 7 mps 742 mmHg 36%
    14:00 +44°C° 0 mm 7 mps 741 mmHg 36%
    15:00 +44°C° 0 mm 7 mps 741 mmHg 36%
    16:00 +43°C° 0 mm 7 mps 741 mmHg 39%
    17:00 +41°C° 0 mm 7 mps 741 mmHg 41%
    18:00 +40°C° 0 mm 7 mps 741 mmHg 44%
    19:00 +39°C° 0 mm 6 mps 741 mmHg 45%
    20:00 +37°C° 0 mm 5 mps 741 mmHg 46%
    21:00 +36°C° 0 mm 4 mps 742 mmHg 47%
    22:00 +35°C° 0 mm 3 mps 741 mmHg 48%
    23:00 +35°C° 0 mm 3 mps 741 mmHg 49%

    26 July, Friday

    Time Temperature Precipitation Wind Pressure Humidity
    00:00 +34°C° 0 mm 2 mps 741 mmHg 50%
    01:00 +34°C° 0 mm 2 mps 741 mmHg 52%
    02:00 +33°C° 0 mm 3 mps 741 mmHg 53%
    03:00 +33°C° 0 mm 3 mps 741 mmHg 54%
    04:00 +31°C° 0 mm 3 mps 741 mmHg 61%
    05:00 +31°C° 0 mm 2 mps 741 mmHg 68%
    06:00 +30°C° 0 mm 2 mps 741 mmHg 75%
    07:00 +32°C° 0 mm 2 mps 742 mmHg 67%
    08:00 +35°C° 0 mm 2 mps 742 mmHg 59%
    09:00 +37°C° 0 mm 3 mps 742 mmHg 51%
    10:00 +40°C° 0 mm 4 mps 742 mmHg 46%
    11:00 +41°C° 0 mm 5 mps 742 mmHg 42%
    12:00 +44°C° 0 mm 6 mps 742 mmHg 38%
    13:00 +42°C° 0 mm 6 mps 741 mmHg 39%
    14:00 +42°C° 0 mm 6 mps 741 mmHg 40%
    15:00 +41°C° 0 mm 6 mps 740 mmHg 42%
    16:00 +41°C° 0 mm 5 mps 740 mmHg 41%
    17:00 +41°C° 0 mm 4 mps 740 mmHg 40%
    18:00 +40°C° 0 mm 3 mps 740 mmHg 40%
    19:00 +38°C° 0 mm 3 mps 741 mmHg 46%
    20:00 +37°C° 0 mm 2 mps 741 mmHg 51%
    21:00 +35°C° 0 mm 2 mps 741 mmHg 57%
    22:00 +35°C° 0 mm 2 mps 741 mmHg 59%
    23:00 +34°C° 0 mm 2 mps 741 mmHg 60%
    Show more